Weather History for St. James, MN

Change the Weather History Date:

Saturday, October 6, 2012

  Actual Average Record
Temperature  
Mean Temperature 34 °F -  
Max Temperature 42 °F 64 °F 127 °F (1998)
Min Temperature 24 °F 39 °F 23 °F (1976)
Degree Days  
Heating Degree Days 31    
Moisture  
Dew Point 22 °F    
Average Humidity 59    
Maximum Humidity 80    
Minimum Humidity 36    
Precipitation  
Precipitation 0.00 in - - ()
Sea Level Pressure  
Sea Level Pressure 30.27 in    
Wind  
Wind Speed 13 mph (NW)    
Max Wind Speed 22 mph    
Max Gust Speed 26 mph    
Visibility 10 miles    
Events      
Averages and records for this station are not official NWS values.
T = Trace of Precipitation, MM = Missing Value Source: NWS Daily Summary

Daily Weather History Graph

Daily Weather History Graph

Search for Another Location

Airport:

Trip Planner

Search our weather history database for the weather conditions in past years. The results will help you decide how hot, cold, wet, or windy it might be!

Date:

Astronomy

Oct. 06, 2012 Rise Set
Actual Time 7:22 AM CDT 6:49 PM CDT
Civil Twilight 6:53 AM CDT 7:17 PM CDT
Nautical Twilight 6:20 AM CDT 7:51 PM CDT
Astronomical Twilight 5:46 AM CDT 8:24 PM CDT
Moon 10:56 PM CDT (10/6) 1:26 PM CDT (10/6)
Length of Visible Light 12h 24m
Length of Day
11h 26m
Waning Gibbous, 65% of the Moon is Illuminated
Oct 6
Waning Gibbous
Oct 8
Last Quarter
Oct 15
New
Oct 21
First Quarter
Oct 29
Full

Hourly Weather History & Observations

Time (CDT) Temp. Windchill Dew Point Humidity Pressure Visibility Wind Dir Wind Speed Gust Speed Precip Events Conditions
12:15 AM 37.4 °F 27.8 °F 21.2 °F 52% 30.22 in 10.0 mi WNW 17.3 mph 24.2 mph N/A   Overcast
12:35 AM 37.4 °F 26.6 °F 23.0 °F 56% 30.22 in 10.0 mi NW 21.9 mph 26.5 mph N/A   Overcast
12:55 AM 35.6 °F 24.8 °F 23.0 °F 60% 30.22 in 10.0 mi NW 19.6 mph 25.3 mph N/A   Scattered Clouds
1:15 AM 35.6 °F 25.5 °F 24.8 °F 65% 30.22 in 10.0 mi NW 17.3 mph - N/A   Clear
1:55 AM 32.0 °F 23.6 °F 24.8 °F 75% 30.23 in 10.0 mi WNW 10.4 mph - N/A   Scattered Clouds
2:15 AM 32.0 °F 22.5 °F 24.8 °F 75% 30.23 in 10.0 mi WNW 12.7 mph - N/A   Clear
2:35 AM 32.0 °F 23.0 °F 24.8 °F 75% 30.23 in 10.0 mi WNW 11.5 mph - N/A   Clear
2:55 AM 32.0 °F 23.0 °F 24.8 °F 75% 30.23 in 10.0 mi WNW 11.5 mph - N/A   Clear
3:15 AM 32.0 °F 22.1 °F 24.8 °F 75% 30.22 in 10.0 mi WNW 13.8 mph - N/A   Clear
3:35 AM 30.2 °F 20.2 °F 24.8 °F 80% 30.22 in 10.0 mi WNW 12.7 mph - N/A   Clear
3:55 AM 30.2 °F 20.8 °F 24.8 °F 80% 30.22 in 10.0 mi WNW 11.5 mph - N/A   Clear
4:35 AM 33.8 °F 25.3 °F 24.8 °F 70% 30.23 in 10.0 mi WNW 11.5 mph - N/A   Overcast
4:55 AM 33.8 °F 24.8 °F 24.8 °F 70% 30.23 in 10.0 mi WNW 12.7 mph - N/A   Overcast
5:15 AM 33.8 °F 24.8 °F 24.8 °F 70% 30.23 in 10.0 mi WNW 12.7 mph 19.6 mph N/A   Mostly Cloudy
5:35 AM 33.8 °F 23.5 °F 24.8 °F 70% 30.23 in 10.0 mi WNW 16.1 mph 21.9 mph N/A   Overcast
5:54 AM 33.8 °F 23.5 °F 26.6 °F 75% 30.24 in 10.0 mi WNW 16.1 mph 20.7 mph N/A   Overcast
6:15 AM 33.8 °F 24.3 °F 26.6 °F 75% 30.25 in 10.0 mi WNW 13.8 mph 21.9 mph N/A   Overcast
6:35 AM 33.8 °F 24.3 °F 26.6 °F 75% 30.25 in 10.0 mi WNW 13.8 mph 19.6 mph N/A   Overcast
6:55 AM 33.8 °F 24.8 °F 26.6 °F 75% 30.25 in 10.0 mi WNW 12.7 mph 18.4 mph N/A   Overcast
7:15 AM 33.8 °F 25.8 °F 26.6 °F 75% 30.26 in 10.0 mi WNW 10.4 mph - N/A   Overcast
7:35 AM 33.8 °F 24.8 °F 26.6 °F 75% 30.26 in 10.0 mi WNW 12.7 mph 20.7 mph N/A   Overcast
7:55 AM 35.6 °F 27.1 °F 26.6 °F 70% 30.28 in 10.0 mi WNW 12.7 mph 18.4 mph N/A   Overcast
8:15 AM 35.6 °F 26.2 °F 26.6 °F 70% 30.28 in 10.0 mi WNW 15.0 mph - N/A   Overcast
8:35 AM 35.6 °F 26.6 °F 26.6 °F 70% 30.29 in 10.0 mi WNW 13.8 mph 19.6 mph N/A   Overcast
8:55 AM 35.6 °F 26.2 °F 26.6 °F 70% 30.30 in 10.0 mi WNW 15.0 mph 20.7 mph N/A   Overcast
9:15 AM 35.6 °F 25.5 °F 26.6 °F 70% 30.30 in 10.0 mi West 17.3 mph 23.0 mph N/A   Overcast
9:35 AM 35.6 °F 25.5 °F 26.6 °F 70% 30.30 in 10.0 mi WNW 17.3 mph 21.9 mph N/A   Overcast
9:55 AM 37.4 °F 28.5 °F 26.6 °F 65% 30.31 in 10.0 mi NW 15.0 mph 19.6 mph N/A   Overcast
10:15 AM 37.4 °F 28.2 °F 26.6 °F 65% 30.31 in 10.0 mi NW 16.1 mph 21.9 mph N/A   Overcast
10:35 AM 37.4 °F 28.5 °F 26.6 °F 65% 30.31 in 10.0 mi NW 15.0 mph - N/A   Overcast
10:55 AM 39.2 °F 31.6 °F 26.6 °F 61% 30.31 in 10.0 mi NW 12.7 mph 21.9 mph N/A   Overcast
11:15 AM 39.2 °F 30.8 °F 26.6 °F 61% 30.31 in 10.0 mi NW 15.0 mph 20.7 mph N/A   Overcast
11:35 AM 39.2 °F 31.2 °F 24.8 °F 56% 30.31 in 10.0 mi NW 13.8 mph - N/A   Overcast
11:55 AM 39.2 °F 30.8 °F 24.8 °F 56% 30.31 in 10.0 mi NW 15.0 mph 21.9 mph N/A   Overcast
12:15 PM 39.2 °F 30.8 °F 24.8 °F 56% 30.31 in 10.0 mi NW 15.0 mph - N/A   Overcast
12:35 PM 39.2 °F 30.8 °F 23.0 °F 52% 30.31 in 10.0 mi NNW 15.0 mph 19.6 mph N/A   Overcast
12:55 PM 39.2 °F 30.5 °F 21.2 °F 49% 30.31 in 10.0 mi NW 16.1 mph - N/A   Overcast
1:15 PM 39.2 °F 31.6 °F 21.2 °F 49% 30.31 in 10.0 mi NNW 12.7 mph - N/A   Overcast
1:35 PM 39.2 °F 32.0 °F 21.2 °F 49% 30.30 in 10.0 mi WNW 11.5 mph - N/A   Overcast
1:54 PM 41.0 °F 32.8 °F 21.2 °F 45% 30.29 in 10.0 mi NW 16.1 mph 19.6 mph N/A   Overcast
2:15 PM 42.8 °F 35.4 °F 19.4 °F 39% 30.28 in 10.0 mi NW 15.0 mph 18.4 mph N/A   Overcast
2:35 PM 42.8 °F 35.4 °F 19.4 °F 39% 30.28 in 10.0 mi NNW 15.0 mph - N/A   Overcast
2:55 PM 42.8 °F 35.8 °F 19.4 °F 39% 30.28 in 10.0 mi NW 13.8 mph 20.7 mph N/A   Overcast
3:15 PM 42.8 °F 35.8 °F 19.4 °F 39% 30.27 in 10.0 mi NW 13.8 mph 19.6 mph N/A   Overcast
3:34 PM 42.8 °F 35.8 °F 19.4 °F 39% 30.27 in 10.0 mi NNW 13.8 mph 19.6 mph N/A   Mostly Cloudy
3:55 PM 42.8 °F 36.2 °F 19.4 °F 39% 30.27 in 10.0 mi NNW 12.7 mph 23.0 mph N/A   Mostly Cloudy
4:15 PM 41.0 °F 33.5 °F 17.6 °F 39% 30.26 in 10.0 mi North 13.8 mph 19.6 mph N/A   Mostly Cloudy
4:35 PM 42.8 °F 35.8 °F 17.6 °F 36% 30.26 in 10.0 mi NW 13.8 mph - N/A   Mostly Cloudy
4:55 PM 41.0 °F 33.9 °F 17.6 °F 39% 30.27 in 10.0 mi NW 12.7 mph - N/A   Scattered Clouds
5:15 PM 41.0 °F 37.1 °F 17.6 °F 39% 30.27 in 10.0 mi NW 5.8 mph - N/A   Scattered Clouds
5:35 PM 41.0 °F 35.2 °F 17.6 °F 39% 30.27 in 10.0 mi NNW 9.2 mph - N/A   Mostly Cloudy
5:55 PM 39.2 °F 33.0 °F 17.6 °F 42% 30.27 in 10.0 mi NNW 9.2 mph - N/A   Mostly Cloudy
6:15 PM 39.2 °F 33.6 °F 17.6 °F 42% 30.27 in 10.0 mi NNW 8.1 mph - N/A   Scattered Clouds
6:35 PM 37.4 °F - 17.6 °F 45% 30.27 in 10.0 mi Calm Calm - N/A   Clear
6:55 PM 35.6 °F - 15.8 °F 44% 30.28 in 10.0 mi Calm Calm - N/A   Clear
7:15 PM 35.6 °F - 17.6 °F 48% 30.28 in 10.0 mi Calm Calm - N/A   Scattered Clouds
7:35 PM 35.6 °F - 15.8 °F 44% 30.28 in 10.0 mi Calm Calm - N/A   Scattered Clouds
7:54 PM 35.6 °F - 17.6 °F 48% 30.28 in 10.0 mi Calm Calm - N/A   Mostly Cloudy
8:15 PM 35.6 °F - 17.6 °F 48% 30.28 in 10.0 mi Calm Calm - N/A   Overcast
8:34 PM 35.6 °F - 19.4 °F 52% 30.28 in 10.0 mi Calm Calm - N/A   Overcast
8:55 PM 35.6 °F - 17.6 °F 48% 30.28 in 10.0 mi Calm Calm - N/A   Mostly Cloudy
9:14 PM 33.8 °F - 17.6 °F 52% 30.28 in 10.0 mi Calm Calm - N/A   Scattered Clouds
9:35 PM 32.0 °F - 17.6 °F 55% 30.28 in 10.0 mi Calm Calm - N/A   Clear
9:55 PM 30.2 °F - 17.6 °F 60% 30.28 in 10.0 mi Calm Calm - N/A   Clear
10:14 PM 30.2 °F - 17.6 °F 60% 30.28 in 10.0 mi Calm Calm - N/A   Clear
10:35 PM 28.4 °F - 17.6 °F 64% 30.28 in 10.0 mi Calm Calm - N/A   Clear
10:55 PM 28.4 °F - 17.6 °F 64% 30.28 in 10.0 mi Calm Calm - N/A   Clear
11:15 PM 26.6 °F - 17.6 °F 69% 30.28 in 10.0 mi Calm Calm - N/A   Clear
11:35 PM 26.6 °F - 17.6 °F 69% 30.27 in 10.0 mi Calm Calm - N/A   Clear
11:55 PM 24.8 °F - 15.8 °F 69% 30.27 in 10.0 mi Calm Calm - N/A   Clear